Time,TemperatureF,DewpointF,PressureIn,WindDirection,WindDirectionDegrees,WindSpeedMPH,WindSpeedGustMPH,Humidity,HourlyPrecipIn,Conditions,Clouds,dailyrainin,SoftwareType,DateUTC
2013-03-19 08:03:00,38.3,32.4,29.79,SW,225,4.3,-999.0,79,-99.99,,,0.00,Acu-Link.com,2013-03-19 12:03:00,
2013-03-19 08:18:00,37.4,33.6,29.79,WSW,247,1.6,-999.0,86,-99.99,,,0.00,Acu-Link.com,2013-03-19 12:18:00,
2013-03-19 08:33:00,39.0,33.4,29.78,SSE,157,0.0,-999.0,80,-99.99,,,0.00,Acu-Link.com,2013-03-19 12:33:00,
2013-03-19 08:48:00,44.6,36.1,29.78,ESE,112,0.0,-999.0,72,-99.99,,,0.00,Acu-Link.com,2013-03-19 12:48:00,
2013-03-19 09:03:00,48.0,34.8,29.79,WSW,247,7.4,-999.0,60,-99.99,,,0.00,Acu-Link.com,2013-03-19 13:03:00,
2013-03-19 09:19:00,48.7,31.9,29.78,South,180,3.1,-999.0,52,-99.99,,,0.00,Acu-Link.com,2013-03-19 13:19:00,
2013-03-19 09:34:00,45.5,31.6,29.78,East,90,4.3,-999.0,58,-99.99,,,0.00,Acu-Link.com,2013-03-19 13:34:00,
2013-03-19 09:49:00,46.4,31.6,29.78,NE,45,4.3,-999.0,56,-99.99,,,0.00,Acu-Link.com,2013-03-19 13:49:00,
2013-03-19 10:04:00,47.3,28.1,29.79,ENE,67,4.7,-999.0,47,-99.99,,,0.00,Acu-Link.com,2013-03-19 14:04:00,
2013-03-19 10:19:00,47.5,27.7,29.79,ESE,112,3.1,-999.0,46,-99.99,,,0.00,Acu-Link.com,2013-03-19 14:19:00,
2013-03-19 10:35:00,47.7,28.4,29.80,ENE,67,4.3,-999.0,47,-99.99,,,0.00,Acu-Link.com,2013-03-19 14:35:00,
2013-03-19 10:50:00,48.2,30.4,29.79,SSW,202,5.1,-999.0,50,-99.99,,,0.00,Acu-Link.com,2013-03-19 14:50:00,
2013-03-19 11:05:00,48.4,30.1,29.80,NE,45,4.7,-999.0,49,-99.99,,,0.00,Acu-Link.com,2013-03-19 15:05:00,
2013-03-19 11:20:00,49.6,31.8,29.81,East,90,4.3,-999.0,50,-99.99,,,0.00,Acu-Link.com,2013-03-19 15:20:00,
2013-03-19 11:36:00,50.5,31.6,29.81,East,90,7.4,-999.0,48,-99.99,,,0.00,Acu-Link.com,2013-03-19 15:36:00,
2013-03-19 11:51:00,51.1,29.4,29.82,SSE,157,2.7,-999.0,43,-99.99,,,0.00,Acu-Link.com,2013-03-19 15:51:00,
2013-03-19 12:06:00,52.3,28.7,29.82,ENE,67,2.2,-999.0,40,-99.99,,,0.00,Acu-Link.com,2013-03-19 16:06:00,
2013-03-19 12:21:00,52.5,27.0,29.83,ESE,112,5.1,-999.0,37,-99.99,,,0.00,Acu-Link.com,2013-03-19 16:21:00,
2013-03-19 12:36:00,53.4,28.5,29.82,East,90,6.3,-999.0,38,-99.99,,,0.00,Acu-Link.com,2013-03-19 16:36:00,
2013-03-19 13:07:00,55.2,28.1,29.82,SSE,157,3.1,-999.0,35,-99.99,,,0.00,Acu-Link.com,2013-03-19 17:07:00,
2013-03-19 13:22:00,54.9,31.0,29.82,ENE,67,5.1,-999.0,40,-99.99,,,0.00,Acu-Link.com,2013-03-19 17:22:00,
2013-03-19 13:37:00,55.6,29.1,29.82,ENE,67,7.4,-999.0,36,-99.99,,,0.00,Acu-Link.com,2013-03-19 17:37:00,
2013-03-19 13:52:00,55.9,29.4,29.82,SE,135,2.7,-999.0,36,-99.99,,,0.00,Acu-Link.com,2013-03-19 17:52:00,
2013-03-19 14:08:00,55.8,29.9,29.82,ENE,67,2.7,-999.0,37,-99.99,,,0.00,Acu-Link.com,2013-03-19 18:08:00,
2013-03-19 14:23:00,56.1,26.7,29.81,NW,315,6.7,-999.0,32,-99.99,,,0.00,Acu-Link.com,2013-03-19 18:23:00,
2013-03-19 14:38:00,57.2,28.4,29.81,East,90,4.3,-999.0,33,-99.99,,,0.00,Acu-Link.com,2013-03-19 18:38:00,
2013-03-19 14:53:00,58.8,28.3,29.81,SSW,202,3.8,-999.0,31,-99.99,,,0.00,Acu-Link.com,2013-03-19 18:53:00,
2013-03-19 15:09:00,56.1,24.3,29.82,NNW,337,9.4,-999.0,29,-99.99,,,0.00,Acu-Link.com,2013-03-19 19:09:00,
2013-03-19 15:24:00,56.7,26.4,29.82,NNW,337,4.3,-999.0,31,-99.99,,,0.00,Acu-Link.com,2013-03-19 19:24:00,
2013-03-19 15:39:00,57.0,26.7,29.82,SE,135,4.3,-999.0,31,-99.99,,,0.00,Acu-Link.com,2013-03-19 19:39:00,
2013-03-19 15:54:00,56.7,30.0,29.82,East,90,3.1,-999.0,36,-99.99,,,0.00,Acu-Link.com,2013-03-19 19:54:00,
2013-03-19 16:09:00,54.3,27.3,29.82,SSW,202,8.3,-999.0,35,-99.99,,,0.00,Acu-Link.com,2013-03-19 20:09:00,
2013-03-19 16:25:00,54.9,28.4,29.83,SSW,202,3.1,-999.0,36,-99.99,,,0.00,Acu-Link.com,2013-03-19 20:25:00,
2013-03-19 16:40:00,55.0,29.9,29.83,East,90,12.5,-999.0,38,-99.99,,,0.00,Acu-Link.com,2013-03-19 20:40:00,
2013-03-19 16:55:00,54.1,29.1,29.84,South,180,4.3,-999.0,38,-99.99,,,0.00,Acu-Link.com,2013-03-19 20:55:00,
2013-03-19 17:10:00,53.4,28.5,29.83,East,90,4.3,-999.0,38,-99.99,,,0.00,Acu-Link.com,2013-03-19 21:10:00,
2013-03-19 17:25:00,54.7,28.9,29.82,ENE,67,3.8,-999.0,37,-99.99,,,0.00,Acu-Link.com,2013-03-19 21:25:00,
2013-03-19 17:41:00,53.8,27.5,29.83,NNE,22,4.7,-999.0,36,-99.99,,,0.00,Acu-Link.com,2013-03-19 21:41:00,
2013-03-19 17:56:00,52.9,26.0,29.83,NE,45,3.8,-999.0,35,-99.99,,,0.00,Acu-Link.com,2013-03-19 21:56:00,
2013-03-19 18:11:00,51.8,25.7,29.83,SSE,157,5.1,-999.0,36,-99.99,,,0.00,Acu-Link.com,2013-03-19 22:11:00,
2013-03-19 18:26:00,51.3,23.9,29.83,SE,135,2.7,-999.0,34,-99.99,,,0.00,Acu-Link.com,2013-03-19 22:26:00,
2013-03-19 18:42:00,51.1,23.7,29.83,NE,45,5.8,-999.0,34,-99.99,,,0.00,Acu-Link.com,2013-03-19 22:42:00,
2013-03-19 18:57:00,50.7,21.9,29.83,NNW,337,4.3,-999.0,32,-99.99,,,0.00,Acu-Link.com,2013-03-19 22:57:00,
2013-03-19 19:12:00,50.2,22.2,29.83,WNW,292,1.1,-999.0,33,-99.99,,,0.00,Acu-Link.com,2013-03-19 23:12:00,
2013-03-19 19:27:00,48.6,22.8,29.84,WNW,292,1.6,-999.0,36,-99.99,,,0.00,Acu-Link.com,2013-03-19 23:27:00,
2013-03-19 19:42:00,47.5,23.8,29.84,ESE,112,4.3,-999.0,39,-99.99,,,0.00,Acu-Link.com,2013-03-19 23:42:00,
2013-03-19 19:58:00,47.7,22.0,29.85,SSW,202,2.7,-999.0,36,-99.99,,,0.00,Acu-Link.com,2013-03-19 23:58:00,
2013-03-19 20:13:00,46.0,23.7,29.85,SW,225,1.6,-999.0,41,-99.99,,,0.00,Acu-Link.com,2013-03-20 00:13:00,
2013-03-19 20:28:00,45.0,21.5,29.85,West,270,2.2,-999.0,39,-99.99,,,0.00,Acu-Link.com,2013-03-20 00:28:00,
2013-03-19 20:43:00,45.0,20.9,29.85,SW,225,2.2,-999.0,38,-99.99,,,0.00,Acu-Link.com,2013-03-20 00:43:00,
2013-03-19 20:58:00,44.1,21.3,29.86,SE,135,5.8,-999.0,40,-99.99,,,0.00,Acu-Link.com,2013-03-20 00:58:00,
2013-03-19 21:14:00,44.4,20.4,29.86,North,0,1.6,-999.0,38,-99.99,,,0.00,Acu-Link.com,2013-03-20 01:14:00,
2013-03-19 21:29:00,44.2,19.6,29.87,SSW,202,1.6,-999.0,37,-99.99,,,0.00,Acu-Link.com,2013-03-20 01:29:00,
2013-03-19 21:44:00,43.5,21.4,29.86,WSW,247,4.3,-999.0,41,-99.99,,,0.00,Acu-Link.com,2013-03-20 01:44:00,
2013-03-19 21:59:00,43.5,21.4,29.87,WSW,247,4.3,-999.0,41,-99.99,,,0.00,Acu-Link.com,2013-03-20 01:59:00,
2013-03-19 22:14:00,43.5,21.4,29.87,WSW,247,4.3,-999.0,41,-99.99,,,0.00,Acu-Link.com,2013-03-20 02:14:00,
2013-03-19 22:30:00,43.5,21.4,29.87,WSW,247,4.3,-999.0,41,-99.99,,,0.00,Acu-Link.com,2013-03-20 02:30:00,
2013-03-19 22:45:00,43.5,21.4,29.87,WSW,247,4.3,-999.0,41,-99.99,,,0.00,Acu-Link.com,2013-03-20 02:45:00,
2013-03-19 23:00:00,43.5,21.4,29.87,WSW,247,4.3,-999.0,41,-99.99,,,0.00,Acu-Link.com,2013-03-20 03:00:00,
2013-03-19 23:15:00,43.5,21.4,29.87,WSW,247,4.3,-999.0,41,-99.99,,,0.00,Acu-Link.com,2013-03-20 03:15:00,
2013-03-19 23:31:00,43.5,21.4,29.88,WSW,247,4.3,-999.0,41,-99.99,,,0.00,Acu-Link.com,2013-03-20 03:31:00,